Content
SEND FEEDBACK

Daily
Averages
Monthly
Summary
United States of America

MERIZO, GUAM


Home > North America > United States > Guam
Elevation: 10 feet     Latitude: 13 14N     Longitude: 144 39E

WEATHER
 
SELECT A DAY
Number of Records: 341,524;   Date Range: 1/1/95 - 7/7/14
 
SHARE

PRINT THIS DATA

[ ← Previous Day ]
WEATHER ALMANAC - MAY 24, 2013
[ Next Day → ]
[ °C ]   °F
Weather ElementAverageHighLow
Temperature81.4 °F86 °F (9:48 am)78.8 °F (2:46 am)
Dewpoint74.4 °F75.4 °F (9:55 pm)72.9 °F (6:55 pm)
Humidity79.7 %89 % (2:46 am)67 % (12:55 pm)
Barometer29.84 in29.88 in (8:55 am)29.81 in (1:55 pm)
Wind Speed8.4 mph11.5 mph (8:55 pm)
Weather ElementAverage
Visibility10 mi
Wind DirectionE (93.9 °)

Weather ElementTotal
Precipitation---
Cooling Degree Days17.4 (Base 65)
Growing Degree Days32.4 (Base 50)
Averaged from 44 records on May 24, 2013
WEATHER CONDITIONS BREAKOUT
WIND DIRECTION BREAKOUT
WEATHER BY HOUR - MAY 24, 2013
[ °C ]   °F
Local TimeTemperatureDewpointHumidityBarometerVisibilityWind DirectionWind SpeedGust SpeedPrecipitationEventsConditions
12:15 AM80.6 °F75.2 °F84 %29.86 in10.0 miEast (100°)8.1 mphScattered Clouds
12:18 AM80.6 °F75.2 °F84 %29.86 in10.0 miEast (80°)10.4 mphMostly Cloudy
12:51 AM80.6 °F75.2 °F84 %29.85 in10.0 miEast (100°)8.1 mphScattered Clouds
12:55 AM80.2 °F74.7 °F83 %29.85 in10.0 miEast (100°)9.2 mphScattered Clouds
1:55 AM79.2 °F74.1 °F84 %29.83 in10.0 miESE (110°)5.8 mphPartly Cloudy
2:46 AM78.8 °F75.2 °F89 %29.83 in10.0 miESE (120°)3.5 mphMostly Cloudy
2:49 AM78.8 °F75.2 °F89 %29.82 in10.0 miEast (100°)5.8 mphMostly Cloudy
2:55 AM79.5 °F75.0 °F86 %29.82 in10.0 miESE (110°)5.8 mphMostly Cloudy
2:59 AM78.8 °F75.2 °F89 %29.82 in10.0 miESE (110°)5.8 mphMostly Cloudy
3:15 AM78.8 °F75.2 °F89 %29.82 in10.0 miESE (110°)5.8 mphScattered Clouds
3:52 AM78.8 °F75.2 °F89 %29.82 in10.0 miEast (90°)5.8 mphMostly Cloudy
3:55 AM78.8 °F74.7 °F87 %29.82 in10.0 miEast (90°)5.8 mphScattered Clouds
4:55 AM79.2 °F74.3 °F85 %29.82 in10.0 miEast (90°)6.9 mphPartly Cloudy
5:18 AM78.8 °F73.4 °F83 %29.83 in10.0 miEast (80°)9.2 mphMostly Cloudy
5:21 AM78.8 °F73.4 °F83 %29.83 in10.0 miEast (80°)8.1 mphMostly Cloudy
5:45 AM78.8 °F75.2 °F89 %29.83 in10.0 miEast (90°)6.9 mphMostly Cloudy
5:51 AM78.8 °F75.2 °F89 %29.83 in10.0 miEast (90°)9.2 mphScattered Clouds
5:52 AM78.8 °F73.4 °F83 %29.83 in10.0 miEast (80°)9.2 mphMostly Cloudy
5:54 AM78.8 °F73.4 °F83 %29.83 in10.0 miEast (80°)8.1 mphScattered Clouds
5:55 AM79.0 °F74.1 °F85 %29.83 in10.0 miEast (90°)8.1 mphScattered Clouds
6:55 AM81.0 °F74.1 °F80 %29.85 in10.0 miEast (90°)8.1 mphClear
7:55 AM82.9 °F73.8 °F74 %29.87 in10.0 miEast (90°)9.2 mphClear
8:55 AM84.2 °F74.3 °F72 %29.88 in10.0 miEast (80°)9.2 mphClear
9:48 AM86.0 °F75.2 °F70 %29.88 in10.0 miESE (110°)9.2 mphMostly Cloudy
9:55 AM84.6 °F74.7 °F72 %29.88 in10.0 miEast (90°)9.2 mphMostly Cloudy
9:58 AM84.2 °F75.2 °F74 %29.88 in10.0 miESE (120°)10.4 mphScattered Clouds
10:08 AM84.2 °F75.2 °F74 %29.88 in10.0 miEast (90°)10.4 mphMostly Cloudy
10:10 AM86.0 °F75.2 °F70 %29.88 in10.0 miESE (110°)9.2 mphScattered Clouds
10:55 AM85.1 °F73.4 °F68 %29.87 in10.0 miEast (90°)10.4 mphPartly Cloudy
11:55 AM85.1 °F73.8 °F69 %29.86 in10.0 miEast (100°)8.1 mphClear
12:55 PM85.5 °F73.4 °F67 %29.84 in10.0 miESE (110°)8.1 mphPartly Cloudy
1:55 PM85.5 °F73.2 °F67 %29.81 in10.0 miESE (110°)9.2 mphClear
2:55 PM85.8 °F73.8 °F67 %29.81 in10.0 miEast (90°)9.2 mphClear
3:55 PM85.3 °F73.8 °F68 %29.81 in10.0 miESE (110°)9.2 mphClear
4:55 PM84.7 °F74.3 °F71 %29.81 in10.0 miEast (90°)8.1 mphPartly Cloudy
5:55 PM82.9 °F73.6 °F73 %29.82 in10.0 miENE (70°)10.4 mphClear
6:55 PM81.0 °F72.9 °F76 %29.84 in10.0 miEast (90°)9.2 mphClear
7:55 PM80.6 °F73.6 °F79 %29.85 in10.0 miEast (80°)10.4 mphClear
8:55 PM80.6 °F73.8 °F80 %29.86 in10.0 miEast (90°)11.5 mphClear
9:51 PM80.6 °F75.2 °F84 %29.87 in10.0 miENE (70°)8.1 mphLight Drizzle
9:55 PM80.6 °F75.4 °F84 %29.86 in10.0 miENE (70°)9.2 mph0.00 inLight Drizzle
10:01 PM80.6 °F75.2 °F84 %29.86 in10.0 miEast (90°)10.4 mphScattered Clouds
10:55 PM80.2 °F74.3 °F82 %29.87 in10.0 miEast (100°)8.1 mph0.00 inClear
11:55 PM80.2 °F74.7 °F83 %29.86 in10.0 miEast (90°)9.2 mphPartly Cloudy
Hourly data recorded from PGUA, located miles away from Merizo, Guam







STORIES FROM OUR PARTNERS